Change the Weather History Date:

Friday, June 14, 2013

  Actual Average (KFAR) Record (KFAR)
Temperature  
Mean Temperature 73 °F 66 °F  
Max Temperature 82 °F 77 °F 95 °F (1979)
Min Temperature 64 °F 55 °F 36 °F (1908)
Degree Days  
Heating Degree Days 0 2  
Month to date heating degree days 47  
Since 1 June heating degree days 47  
Since 1 July heating degree days 8776  
Cooling Degree Days 8 3  
Month to date cooling degree days 34  
Year to date cooling degree days 65  
Since 1 June cooling degree days 34  
Growing Degree Days 23 (Base 50)    
Moisture  
Dew Point 58 °F    
Average Humidity 59    
Maximum Humidity 77    
Minimum Humidity 39    
Precipitation  
Precipitation 0.00 in 0.13 in 2.60 in (1885)
Month to date precipitation 1.78  
Year to date precipitation 8.59  
Snow  
Snow 0.00 in 0.00 in 0.00 in ()
Month to date snowfall 0.0  
Since 1 June snowfall 0.0  
Since 1 July snowfall 50.4  
Snow Depth -    
Sea Level Pressure  
Sea Level Pressure 29.89 in    
Wind  
Wind Speed 12 mph (SSE)    
Max Wind Speed 32 mph    
Max Gust Speed 40 mph    
Visibility 10 miles    
Events Rain , Thunderstorm    
T = Trace of Precipitation, MM = Missing Value Source: NWS Daily Summary

Daily Weather History Graph

Daily Weather History Graph

Search for Another Location

Airport or City:

Trip Planner

Search our weather history database for the weather conditions in past years. The results will help you decide how hot, cold, wet, or windy it might be!

Date:

Astronomy

Jun. 14, 2013 Rise Set
Actual Time 5:31 AM CDT 9:22 PM CDT
Civil Twilight 4:52 AM CDT 10:02 PM CDT
Nautical Twilight 3:58 AM CDT 10:56 PM CDT
Astronomical Twilight 2:39 AM CDT 12:15 AM CDT
Moon 11:26 AM CDT (6/14) 12:11 AM CDT (6/14)
Length of Visible Light 17h 09m
Length of Day
15h 50m
Waxing Crescent, 30% of the Moon is Illuminated
Jun 14
Waxing Crescent
Jun 16
First Quarter
Jun 23
Full
Jun 29
Last Quarter
Jul 8
New

Hourly Weather History & Observations

Time (CDT) Temp. Heat Index Dew Point Humidity Pressure Visibility Wind Dir Wind Speed Gust Speed Precip Events Conditions
12:15 AM 69.8 °F - 55.4 °F 60% 30.02 in 10.0 mi SE 9.2 mph - N/A Thunderstorm Clear
12:34 AM 68.0 °F - 55.4 °F 64% 30.03 in 10.0 mi SSE 9.2 mph - N/A   Clear
12:55 AM 68.0 °F - 55.4 °F 64% 30.03 in 10.0 mi SSE 10.4 mph - N/A   Clear
1:15 AM 69.8 °F - 55.4 °F 60% 30.03 in 10.0 mi SSE 10.4 mph - N/A   Clear
1:34 AM 68.0 °F - 55.4 °F 64% 30.03 in 10.0 mi SSE 10.4 mph - N/A   Clear
1:55 AM 66.2 °F - 55.4 °F 68% 30.01 in 10.0 mi SSE 10.4 mph - N/A   Clear
2:15 AM 66.2 °F - 55.4 °F 68% 29.99 in 10.0 mi SE 9.2 mph - N/A   Clear
2:34 AM 66.2 °F - 55.4 °F 68% 29.98 in 10.0 mi SE 8.1 mph - N/A   Clear
2:55 AM 66.2 °F - 55.4 °F 68% 29.97 in 10.0 mi SE 9.2 mph - N/A   Clear
3:15 AM 66.2 °F - 57.2 °F 73% 29.98 in 10.0 mi SSE 8.1 mph - N/A   Clear
3:35 AM 66.2 °F - 57.2 °F 73% 29.97 in 10.0 mi SSE 10.4 mph - N/A   Clear
3:55 AM 68.0 °F - 55.4 °F 64% 29.97 in 10.0 mi SE 9.2 mph - N/A   Clear
4:14 AM 66.2 °F - 57.2 °F 73% 29.98 in 10.0 mi SSE 8.1 mph - N/A   Clear
4:35 AM 66.2 °F - 57.2 °F 73% 29.97 in 10.0 mi SE 9.2 mph - N/A   Clear
4:55 AM 66.2 °F - 57.2 °F 73% 29.96 in 10.0 mi SE 6.9 mph - N/A   Clear
5:14 AM 64.4 °F - 57.2 °F 77% 29.96 in 10.0 mi ESE 5.8 mph - N/A   Clear
5:35 AM 64.4 °F - 57.2 °F 77% 29.96 in 10.0 mi ESE 8.1 mph - N/A   Clear
5:55 AM 64.4 °F - 57.2 °F 77% 29.95 in 10.0 mi ESE 6.9 mph - N/A   Scattered Clouds
6:14 AM 64.4 °F - 57.2 °F 77% 29.96 in 10.0 mi SE 8.1 mph - N/A   Scattered Clouds
6:35 AM 64.4 °F - 57.2 °F 77% 29.98 in 10.0 mi SE 8.1 mph - N/A   Clear
6:55 AM 66.2 °F - 57.2 °F 73% 29.97 in 10.0 mi SE 10.4 mph - N/A   Clear
7:14 AM 66.2 °F - 57.2 °F 73% 29.98 in 10.0 mi SSE 10.4 mph - N/A   Clear
7:35 AM 68.0 °F - 57.2 °F 68% 29.99 in 10.0 mi SSE 12.7 mph - N/A   Clear
7:55 AM 68.0 °F - 57.2 °F 68% 29.97 in 10.0 mi SE 12.7 mph - N/A   Clear
8:15 AM 69.8 °F - 55.4 °F 60% 29.98 in 10.0 mi SSE 12.7 mph 16.1 mph N/A   Clear
8:35 AM 71.6 °F - 55.4 °F 57% 29.98 in 10.0 mi SSE 16.1 mph - N/A   Scattered Clouds
8:54 AM 71.6 °F - 55.4 °F 57% 29.98 in 10.0 mi SSE 17.3 mph 20.7 mph N/A   Mostly Cloudy
9:15 AM 71.6 °F - 55.4 °F 57% 29.97 in 10.0 mi SSE 15.0 mph 20.7 mph N/A   Scattered Clouds
9:35 AM 73.4 °F - 55.4 °F 53% 29.95 in 10.0 mi SSE 18.4 mph 24.2 mph N/A   Scattered Clouds
9:54 AM 73.4 °F - 55.4 °F 53% 29.94 in 10.0 mi SSE 15.0 mph 24.2 mph N/A   Scattered Clouds
10:15 AM 73.4 °F - 55.4 °F 53% 29.93 in 10.0 mi SSE 17.3 mph 21.9 mph N/A   Scattered Clouds
10:35 AM 73.4 °F - 55.4 °F 53% 29.93 in 10.0 mi SSE 17.3 mph 26.5 mph N/A   Scattered Clouds
10:55 AM 73.4 °F - 53.6 °F 50% 29.93 in 10.0 mi SSE 18.4 mph 26.5 mph N/A   Scattered Clouds
11:15 AM 73.4 °F - 57.2 °F 57% 29.95 in 10.0 mi South 10.4 mph 20.7 mph N/A Rain Light Rain
11:35 AM 73.4 °F - 55.4 °F 53% 29.93 in 10.0 mi SSE 13.8 mph 23.0 mph N/A   Scattered Clouds
11:55 AM 75.2 °F - 55.4 °F 50% 29.91 in 10.0 mi SE 17.3 mph 23.0 mph N/A   Clear
12:15 PM 75.2 °F - 55.4 °F 50% 29.87 in 10.0 mi SE 19.6 mph 24.2 mph N/A   Clear
12:34 PM 75.2 °F - 55.4 °F 50% 29.80 in 10.0 mi SE 23.0 mph 27.6 mph N/A   Clear
12:55 PM 77.0 °F - 55.4 °F 47% 29.78 in 10.0 mi SE 32.2 mph 40.3 mph N/A   Clear
1:15 PM 78.8 °F - 55.4 °F 44% 29.83 in 10.0 mi SSE 21.9 mph 33.4 mph N/A   Clear
1:34 PM 78.8 °F - 53.6 °F 42% 29.86 in 10.0 mi South 24.2 mph 31.1 mph N/A   Clear
1:55 PM 78.8 °F - 55.4 °F 44% 29.85 in 10.0 mi SSE 20.7 mph 28.8 mph N/A   Clear
2:15 PM 78.8 °F - 53.6 °F 42% 29.85 in 10.0 mi South 18.4 mph 26.5 mph N/A   Clear
2:34 PM 78.8 °F - 53.6 °F 42% 29.80 in 10.0 mi SSE 21.9 mph 27.6 mph N/A   Scattered Clouds
2:55 PM 78.8 °F - 55.4 °F 44% 29.84 in 10.0 mi SSE 13.8 mph 23.0 mph N/A   Scattered Clouds
3:15 PM 80.6 °F 80.5 °F 55.4 °F 42% 29.83 in 10.0 mi South 19.6 mph 24.2 mph N/A   Scattered Clouds
3:34 PM 80.6 °F 80.5 °F 55.4 °F 42% 29.82 in 10.0 mi SSE 18.4 mph 23.0 mph N/A   Scattered Clouds
3:55 PM 82.4 °F 81.7 °F 55.4 °F 39% 29.82 in 10.0 mi SSE 18.4 mph 25.3 mph N/A   Scattered Clouds
4:14 PM 82.4 °F 81.7 °F 55.4 °F 39% 29.81 in 10.0 mi SSE 17.3 mph 24.2 mph N/A   Mostly Cloudy
4:35 PM 82.4 °F 81.7 °F 55.4 °F 39% 29.81 in 10.0 mi South 13.8 mph 23.0 mph N/A   Mostly Cloudy
4:55 PM 80.6 °F 80.5 °F 55.4 °F 42% 29.81 in 10.0 mi South 18.4 mph 27.6 mph N/A   Overcast
5:14 PM 80.6 °F 80.8 °F 57.2 °F 45% 29.81 in 10.0 mi South 20.7 mph 24.2 mph N/A   Overcast
5:35 PM 80.6 °F 80.8 °F 57.2 °F 45% 29.81 in 10.0 mi South 18.4 mph 25.3 mph N/A   Overcast
5:55 PM 80.6 °F 81.1 °F 59.0 °F 48% 29.80 in 10.0 mi SSE 20.7 mph 24.2 mph N/A   Mostly Cloudy
6:14 PM 78.8 °F - 60.8 °F 54% 29.79 in 10.0 mi SSE 16.1 mph - N/A   Mostly Cloudy
6:35 PM 78.8 °F - 60.8 °F 54% 29.78 in 10.0 mi SSE 17.3 mph 25.3 mph N/A   Mostly Cloudy
6:55 PM 78.8 °F - 60.8 °F 54% 29.78 in 10.0 mi SSE 15.0 mph 20.7 mph N/A   Mostly Cloudy
7:14 PM 78.8 °F - 60.8 °F 54% 29.78 in 10.0 mi SSE 12.7 mph - N/A   Mostly Cloudy
7:35 PM 78.8 °F - 62.6 °F 57% 29.78 in 10.0 mi SSE 15.0 mph - N/A   Mostly Cloudy
7:54 PM 78.8 °F - 62.6 °F 57% 29.77 in 10.0 mi SSE 11.5 mph 17.3 mph N/A   Mostly Cloudy
8:15 PM 77.0 °F - 62.6 °F 61% 29.77 in 10.0 mi SSE 11.5 mph 17.3 mph N/A   Mostly Cloudy
8:35 PM 77.0 °F - 62.6 °F 61% 29.77 in 10.0 mi SSE 10.4 mph - N/A   Scattered Clouds
8:54 PM 77.0 °F - 64.4 °F 65% 29.77 in 10.0 mi SSE 13.8 mph - N/A   Mostly Cloudy
9:15 PM 77.0 °F - 64.4 °F 65% 29.77 in 10.0 mi SSE 12.7 mph - N/A   Mostly Cloudy
9:35 PM 75.2 °F - 64.4 °F 69% 29.77 in 10.0 mi SSE 9.2 mph - N/A   Scattered Clouds
9:55 PM 75.2 °F - 64.4 °F 69% 29.78 in 10.0 mi SSE 13.8 mph 18.4 mph N/A   Clear
10:15 PM 75.2 °F - 64.4 °F 69% 29.79 in 10.0 mi SSE 11.5 mph - N/A   Scattered Clouds
10:34 PM 75.2 °F - 64.4 °F 69% 29.80 in 10.0 mi SSE 12.7 mph - N/A   Scattered Clouds
10:55 PM 75.2 °F - 64.4 °F 69% 29.81 in 10.0 mi South 12.7 mph 19.6 mph N/A   Scattered Clouds
11:15 PM 75.2 °F - 64.4 °F 69% 29.81 in 10.0 mi South 16.1 mph 19.6 mph N/A   Clear
11:34 PM 75.2 °F - 64.4 °F 69% 29.81 in 10.0 mi South 16.1 mph 19.6 mph N/A   Clear
11:55 PM 73.4 °F - 64.4 °F 73% 29.83 in 10.0 mi WSW 9.2 mph - N/A   Scattered Clouds